Retour au catalogue

THORAD AGENA D DEB

ActifLEO
NORAD 4895·DEBRIS·🇺🇸 United States

Lancé Sep 30, 1969 depuis Vandenberg Space Force Base

Loading…

Prochains Passages

TLE

Source: Space-Track
1  4895U 69082HE  26224.22911281  .00000417  00000-0  14066-3 0  9995
2  4895  70.1716 311.8648 0041227 211.1584 148.7103 14.42911012951283

Suivez THORAD AGENA D DEB en temps réel avec AllMySat

Download on the App Store